Home   Weather   Gainesville   Past weeks

Flag for USA Past Weather in Gainesville, Florida, USA — Yesterday and Last 2 Weeks

Now
66 °F

Passing clouds.


Feels Like: 66 °F
Forecast: 63 / 72 °F
Wind: 9 mph from Southeast

Location: Gainesville Regional Airport

Current Time: Feb 22, 2017 at 1:19:11 am

Latest Report: Feb 21, 2017 at 11:53 pm


Visibility: 10 mi

Pressure: 29.90 "Hg

Humidity: 81%

Dew Point: 60 °F

Location of GainesvilleLocation

Past Weather in Gainesville — Graph

°F

Gainesville Temperature Yesterday

Maximum temperature yesterday: 78 °F (at 3:53 pm)
Minimum temperature yesterday: 54 °F (at 2:53 am)
Average temperature yesterday: 64 °F

High & Low Weather Summary for the Past Weeks

 TemperatureHumidityPressure
High81 °F (Feb 7, 3:53 pm)100% (Feb 8, 8:53 pm)30.47 "Hg (Feb 8, 8:53 pm)
Low23 °F (Feb 9, 5:38 am)18% (Feb 17, 3:53 pm)29.67 "Hg (Feb 15, 2:53 pm)
Average62 °F72%30.06 "Hg
* Reported Feb 6 11:53 pm — Feb 21 11:53 pm, Gainesville, Weather by CustomWeather, © 2017

Note: Actual official high and low records may vary slightly from our data, if they occured in-between our weather recording intervals... More about our weather records

Advertising

Gainesville Weather History for the Previous 24 Hours

Scroll right to see more
 ConditionsComfort  
Time TempWeatherWind HumidityBarometerVisibility
11:53 pm
Tue, Feb 21
66 °FPassing clouds.9 mph81%29.90 "Hg10 mi
10:53 pm68 °FPartly cloudy.10 mph76%29.91 "Hg10 mi
9:53 pm69 °FMostly cloudy.10 mph73%29.93 "Hg10 mi
8:53 pm70 °FMostly cloudy.8 mph71%29.95 "Hg10 mi
7:53 pm68 °FMostly cloudy.7 mph70%29.96 "Hg10 mi
6:53 pm67 °FPassing clouds.No wind68%29.96 "Hg10 mi
5:53 pm74 °FSunny.7 mph53%29.97 "Hg10 mi
4:53 pm75 °FSunny.9 mph50%29.96 "Hg10 mi
3:53 pm78 °FSunny.15 mph46%29.97 "Hg10 mi
2:53 pm75 °FSunny.8 mph54%29.98 "Hg10 mi
1:53 pm76 °FSunny.10 mph52%30.01 "Hg10 mi
12:53 pm74 °FSunny.9 mph57%30.05 "Hg10 mi
11:53 am73 °FSunny.13 mph59%30.09 "Hg10 mi
10:53 am69 °FSunny.7 mph76%30.11 "Hg10 mi
9:53 am65 °FSunny.5 mph87%30.11 "Hg10 mi
8:53 am63 °FScattered clouds.6 mph97%30.11 "Hg10 mi
8:37 am62 °FFog.5 mph96%30.12 "Hg2 mi
8:01 am60 °FFog.5 mph96%30.12 "Hg1 mi
6:53 am58 °FFog.No wind97%30.11 "Hg0 mi
6:31 am58 °FFog.No wind97%30.12 "Hg0 mi
5:53 am56 °FFog.No wind100%30.11 "Hg0 mi
5:26 am56 °FFog.No wind97%30.12 "Hg4 mi
4:53 am55 °FLow clouds.No wind93%30.11 "Hg9 mi
4:24 am54 °FLow clouds.No wind93%30.11 "Hg10 mi
3:53 am55 °FLow clouds.No wind93%30.09 "Hg10 mi
3:28 am54 °FPassing clouds.No wind93%30.10 "Hg10 mi
2:53 am54 °FClear.No wind97%30.09 "Hg10 mi
1:53 am56 °FClear.No wind90%30.11 "Hg10 mi
Weather by CustomWeather, © 2017

See weather overviewHow to use our weather pages